Wind_Speed
3 7 15 19 19 19 15 20 20 20 21 20 20 18 18 17 16 13 12 11 12 9 7 7 11 6 8 7 6 3 4 2 1
3 1 2 13 14 20 22 21 21 21 21 20 20 19 17 17 18 17 14 14 15 12 11 4 8 7 8 9 8 7 7 4 4
4 3 3 3 7 14 19 22 23 21 21 21 21 19 17 16 17 17 17 13 12 13 16 17 14 9 10 10 10 10 10 7 7
6 1 2 4 6 10 17 21 24 24 22 21 19 20 19 17 17 18 17 16 16 15 13 9 11 11 10 11 10 9 11 11 9
8 5 3 2 2 6 12 17 20 20 26 22 21 20 20 21 19 18 17 18 18 16 15 14 14 11 11 12 12 9 11 7 7
7 4 4 3 3 3 7 13 11 12 15 20 21 20 20 20 20 19 19 19 18 19 18 17 15 14 14 14 11 11 10 10 9
6 5 4 5 3 4 5 8 11 13 12 15 16 20 22 22 21 21 20 20 20 18 20 19 18 18 16 15 15 13 12 10 11
6 5 5 4 4 4 6 6 8 11 13 14 17 17 16 20 22 21 21 21 22 21 20 20 20 20 19 18 17 16 15 14 11
8 7 4 3 3 3 4 6 10 8 9 11 14 17 20 19 20 20 22 23 24 25 24 23 21 21 22 21 19 18 21 19 13
9 6 4 2 2 3 4 6 5 9 10 10 9 12 16 20 22 22 22 24 26 28 28 25 25 23 21 23 21 22 24 24 19
10 7 5 3 2 2 2 4 5 3 5 8 11 11 15 19 23 23 22 22 26 28 28 28 27 26 25 24 21 23 26 25 22
9 7 6 5 2 1 2 4 7 5 3 4 3 11 15 14 16 18 19 20 23 27 27 29 30 30 27 26 24 24 24 20 18
10 7 6 4 2 1 1 3 5 6 6 6 5 5 9 16 15 15 14 14 18 21 24 27 29 29 29 29 27 23 21 19 17
10 8 6 4 2 1 1 3 4 7 8 8 7 7 6 9 12 13 13 17 16 15 17 19 25 29 30 27 30 25 23 22 20
11 9 5 4 2 0 2 3 4 5 6 10 8 6 8 9 12 15 15 14 15 20 21 21 22 22 22 23 28 28 25 24 21
10 8 6 3 0 1 3 4 4 3 7 9 11 9 9 4 6 9 14 16 17 19 20 21 25 27 27 26 25 15 17 16 18
9 7 6 4 2 1 3 4 4 5 5 7 10 8 9 3 2 3 4 7 8 9 13 17 24 25 27 27 26 25 25 23 21
8 9 8 7 5 4 3 3 4 3 6 5 10 12 11 9 7 3 3 4 6 7 8 6 4 10 14 17 21 22 21 20 18
10 11 11 10 8 6 5 3 3 4 6 6 6 9 12 11 10 9 7 5 8 9 10 10 12 11 10 10 10 10 10 9 9
11 11 12 11 8 7 6 5 5 5 5 6 6 6 7 11 11 8 6 8 7 6 6 6 6 7 8 9 8 10 11 12 12
Wind_Direction
202 218 213 222 197 213 213 190 196 198 198 196 194 199 202 208 207 210 212 219 206 222 213 207 203 214 215 221 231 215 237 251 213
156 120 189 210 212 197 210 200 199 201 199 203 198 199 201 204 205 206 212 215 222 223 227 199 185 203 216 225 235 231 241 253 256
133 154 167 209 228 233 201 205 204 204 204 205 205 198 202 208 209 210 214 220 222 212 223 222 241 188 217 225 230 235 233 245 266
111 138 224 224 247 229 220 215 200 201 205 207 207 207 204 204 211 212 214 212 223 227 232 229 243 229 220 225 229 243 248 234 224
131 99 102 167 203 210 208 213 221 202 200 207 211 211 208 209 209 210 216 217 219 224 226 222 220 231 230 230 230 231 242 227 241
164 156 135 98 88 146 195 211 221 204 217 205 212 211 213 215 214 215 217 220 219 220 222 222 222 227 230 229 222 228 235 248 242
180 168 174 146 143 132 173 195 207 217 221 222 229 217 215 216 218 217 220 220 221 220 223 224 223 220 226 228 222 226 232 234 244
184 174 176 168 178 200 204 198 210 217 214 216 222 227 229 218 221 221 219 219 218 219 219 226 222 220 222 228 228 230 232 231 236
181 173 180 196 212 216 253 222 201 204 208 218 214 225 228 220 219 218 218 218 218 220 220 219 224 220 220 224 231 238 235 229 232
169 165 164 194 210 216 221 210 198 218 218 207 198 223 225 225 221 221 223 221 219 222 221 220 220 221 222 226 229 232 235 240 239
161 163 161 160 173 189 201 186 196 243 228 238 226 230 229 224 224 223 223 223 224 227 224 222 223 226 226 229 231 233 239 244 240
159 161 157 151 142 143 189 204 202 211 228 282 304 227 231 231 227 231 232 229 229 230 231 230 228 228 229 231 229 234 238 239 233
154 154 157 154 143 69 323 278 248 243 244 250 269 266 248 237 233 235 238 241 238 236 234 235 233 231 230 228 225 231 230 226 213
156 154 154 149 126 93 302 300 277 264 249 239 262 272 270 247 233 236 259 251 241 246 231 229 229 228 233 230 228 226 223 219 213
155 151 152 150 133 88 319 307 314 302 273 240 241 248 246 256 249 243 240 261 255 245 246 241 235 232 232 232 234 234 226 219 209
165 170 173 169 209 292 300 317 313 302 279 235 228 228 238 266 303 258 241 241 247 248 246 247 250 250 247 244 234 211 207 204 199
180 189 196 204 215 263 290 296 292 275 274 250 225 213 228 243 351 311 230 260 255 254 257 254 245 243 237 227 221 221 210 201 196
205 212 212 211 214 230 253 276 282 293 273 264 240 227 230 243 210 123 115 118 107 97 88 66 261 245 225 192 181 176 181 180 172
219 220 218 215 216 226 235 259 275 274 281 277 254 242 230 217 209 197 183 153 117 111 105 107 116 116 118 114 131 140 147 153 160
225 221 217 218 226 239 249 263 262 268 262 267 269 246 217 206 201 192 191 198 197 173 158 140 142 151 153 160 173 179 179 184 178
Height
1503 1504 1506 1509 1510 1518 1522 1526 1531 1536 1540 1542 1545 1547 1551 1553 1556 1560 1562 1564 1565 1567 1566 1570 1568 1571 1574 1575 1576 1577 1577 1578 1578
1502 1504 1504 1507 1510 1512 1519 1523 1527 1533 1536 1540 1542 1545 1548 1552 1554 1556 1560 1562 1563 1566 1565 1566 1568 1570 1572 1574 1575 1576 1577 1577 1576
1503 1506 1508 1509 1510 1511 1513 1518 1523 1528 1533 1537 1540 1543 1546 1550 1552 1554 1557 1559 1561 1563 1563 1564 1558 1567 1570 1572 1573 1573 1572 1575 1574
1503 1506 1507 1509 1510 1511 1511 1515 1517 1523 1529 1533 1537 1540 1542 1546 1549 1552 1554 1557 1559 1560 1560 1561 1563 1565 1568 1569 1570 1571 1570 1571 1572
1505 1506 1507 1508 1509 1509 1510 1513 1516 1518 1520 1528 1532 1536 1539 1542 1545 1548 1550 1552 1555 1557 1558 1559 1562 1563 1565 1566 1568 1568 1567 1568 1570
1503 1506 1507 1508 1509 1510 1511 1513 1515 1515 1518 1522 1527 1531 1535 1538 1541 1544 1546 1548 1550 1552 1554 1555 1558 1560 1562 1562 1564 1565 1565 1565 1567
1500 1504 1506 1508 1510 1511 1512 1514 1515 1517 1518 1520 1522 1525 1529 1532 1536 1538 1541 1544 1546 1548 1549 1551 1552 1555 1557 1558 1559 1561 1562 1563 1562
1499 1502 1505 1507 1508 1509 1510 1512 1514 1515 1516 1519 1521 1522 1524 1526 1531 1533 1536 1538 1540 1542 1545 1546 1547 1549 1552 1554 1555 1557 1557 1558 1559
1497 1501 1503 1506 1508 1509 1509 1508 1509 1510 1511 1513 1515 1517 1519 1523 1525 1528 1529 1531 1533 1535 1538 1540 1542 1543 1545 1548 1550 1552 1552 1554 1555
1496 1499 1502 1504 1506 1507 1507 1507 1507 1507 1508 1507 1509 1511 1515 1516 1518 1520 1523 1524 1526 1528 1530 1533 1534 1537 1539 1541 1543 1544 1546 1548 1550
1495 1499 1502 1503 1505 1505 1505 1506 1507 1506 1506 1506 1505 1507 1510 1511 1512 1514 1516 1517 1519 1521 1524 1526 1527 1530 1533 1535 1537 1538 1539 1542 1543
1494 1498 1501 1502 1503 1503 1503 1504 1505 1505 1506 1505 1504 1504 1506 1507 1507 1509 1511 1511 1512 1515 1517 1519 1520 1523 1526 1529 1531 1531 1534 1536 1538
1494 1497 1500 1501 1502 1502 1502 1502 1502 1503 1504 1505 1504 1503 1502 1502 1503 1505 1506 1507 1508 1509 1511 1513 1515 1517 1519 1521 1523 1526 1529 1531 1534
1493 1496 1499 1500 1500 1501 1501 1501 1500 1499 1499 1501 1502 1501 1499 1499 1499 1500 1502 1503 1504 1505 1506 1507 1508 1511 1513 1515 1515 1519 1523 1525 1527
1493 1495 1498 1499 1500 1500 1500 1499 1498 1497 1497 1497 1498 1499 1497 1496 1496 1496 1496 1498 1499 1501 1502 1504 1504 1506 1507 1510 1512 1513 1516 1518 1521
1491 1494 1496 1497 1498 1499 1499 1497 1494 1496 1494 1494 1495 1496 1495 1495 1494 1494 1494 1495 1494 1495 1498 1498 1500 1502 1504 1504 1507 1509 1511 1514 1517
1490 1493 1495 1496 1497 1497 1498 1497 1495 1493 1492 1492 1493 1494 1494 1494 1494 1493 1492 1493 1492 1491 1492 1493 1495 1496 1497 1499 1501 1503 1506 1510 1513
1488 1491 1493 1494 1495 1495 1495 1495 1493 1492 1490 1490 1491 1491 1493 1494 1494 1493 1493 1493 1492 1491 1492 1492 1492 1493 1494 1494 1497 1500 1503 1507 1510
1486 1488 1490 1492 1492 1493 1494 1493 1493 1490 1489 1488 1488 1489 1490 1491 1492 1493 1493 1494 1495 1495 1496 1497 1496 1498 1499 1500 1504 1506 1509 1512 1516
1483 1485 1487 1489 1491 1492 1492 1492 1491 1490 1488 1487 1487 1488 1488 1490 1491 1492 1493 1494 1496 1497 1499 1499 1501 1502 1503 1505 1508 1510 1511 1515 1515